Novato, CA

5:59 AM PST on December 15, 2019 (GMT -0800)
Gnoss

Weather History for KDVO - October, 2019

Change the Weather History Date:

Wednesday, October 30, 2019

  Actual Average (WUND) Record (WUND)
Temperature  
Mean Temperature 49 °F -  
Max Temperature 68 °F - - (-1)
Min Temperature 30 °F - - (-1)
Degree Days  
Heating Degree Days 16    
Moisture  
Dew Point 23 °F    
Average Humidity 39    
Maximum Humidity 75    
Minimum Humidity 10    
Precipitation  
Precipitation 0.00 in - - ()
Sea Level Pressure  
Sea Level Pressure 30.13 in    
Wind  
Wind Speed - ()    
Max Wind Speed -    
Max Gust Speed -    
Visibility 10.0 miles    
Events      
Averages and records for this station are not official NWS values.
T = Trace of Precipitation, MM = Missing Value Source: Averaged Metar Reports

Daily Weather History Graph

Daily Weather History Graph

Search for Another Location

Airport or City:

Astronomy

Oct. 30, 2019 Rise Set
Actual Time 7:33 AM PDT 6:13 PM PDT
Civil Twilight 7:06 AM PDT 6:40 PM PDT
Nautical Twilight 6:35 AM PDT 7:11 PM PDT
Astronomical Twilight 6:04 AM PDT 7:42 PM PDT
Moon 10:21 AM PDT (10/30) 8:27 PM PDT (10/30)
Length of Visible Light 11h 33m
Length of Day
10h 39m
Waxing Crescent, 9% of the Moon is Illuminated
Oct 30
Waxing Crescent
Nov 4
First Quarter
Nov 12
Full
Nov 19
Last Quarter
Nov 26
New

Hourly Weather History & Observations

Time (PDT) Temp. Dew Point Humidity Pressure Visibility Wind Dir Wind Speed Gust Speed Precip Events Conditions
12:15 AM 42.8 °F 24.8 °F 49% 30.00 in 10.0 mi North - - N/A   Clear
12:35 AM 42.8 °F 26.6 °F 53% 30.00 in 10.0 mi North - - N/A   Clear
12:55 AM 41.0 °F 23.0 °F 49% 30.01 in 10.0 mi North - - N/A   Clear
1:15 AM 32.0 °F 21.2 °F 64% 30.01 in 10.0 mi North - - N/A   Clear
1:55 AM 39.2 °F 26.6 °F 61% 30.02 in 10.0 mi North - - N/A   Clear
2:15 AM 39.2 °F 23.0 °F 52% 30.03 in 10.0 mi North - - N/A   Clear
2:35 AM 39.2 °F 24.8 °F 56% 30.03 in 10.0 mi North - - N/A   Clear
2:55 AM 41.0 °F 24.8 °F 53% 30.04 in 10.0 mi North - - N/A   Clear
3:15 AM 39.2 °F 23.0 °F 52% 30.04 in 10.0 mi North - - N/A   Clear
3:35 AM 39.2 °F 24.8 °F 56% 30.05 in 10.0 mi North - - N/A   Clear
3:55 AM 39.2 °F 24.8 °F 56% 30.05 in 10.0 mi North - - N/A   Clear
4:15 AM 41.0 °F 23.0 °F 49% 30.05 in 10.0 mi North - - N/A   Clear
4:35 AM 39.2 °F 23.0 °F 52% 30.05 in 10.0 mi North - - N/A   Clear
4:55 AM 37.4 °F 24.8 °F 60% 30.06 in 10.0 mi North - - N/A   Clear
5:15 AM 30.2 °F 23.0 °F 75% 30.06 in 10.0 mi North - - N/A   Clear
5:35 AM 32.0 °F 24.8 °F 75% 30.06 in 10.0 mi North - - N/A   Clear
5:55 AM 32.0 °F 24.8 °F 75% 30.07 in 10.0 mi North - - N/A   Clear
6:15 AM 33.8 °F 26.6 °F 75% 30.08 in 10.0 mi North - - N/A   Clear
6:35 AM 35.6 °F 28.4 °F 75% 30.08 in 10.0 mi North - - N/A   Clear
6:55 AM 41.0 °F 28.4 °F 61% 30.09 in 10.0 mi North - - N/A   Clear
7:15 AM 44.6 °F 23.0 °F 43% 30.09 in 10.0 mi North - - N/A   Clear
7:35 AM 48.2 °F 23.0 °F 37% 30.10 in 10.0 mi North - - N/A   Clear
7:55 AM 48.2 °F 24.8 °F 40% 30.11 in 10.0 mi North - - N/A   Clear
8:15 AM 48.2 °F 24.8 °F 40% 30.12 in 10.0 mi North - - N/A   Clear
8:35 AM 50.0 °F 23.0 °F 35% 30.13 in 10.0 mi North - - N/A   Clear
8:55 AM 51.8 °F 23.0 °F 33% 30.14 in 10.0 mi North - - N/A   Clear
9:15 AM 53.6 °F 24.8 °F 33% 30.15 in 10.0 mi North - - N/A   Clear
9:35 AM 55.4 °F 23.0 °F 29% 30.16 in 10.0 mi North - - N/A   Clear
9:55 AM 57.2 °F 23.0 °F 27% 30.16 in 10.0 mi North - - N/A   Clear
10:15 AM 57.2 °F 21.2 °F 25% 30.17 in 10.0 mi North - - N/A   Clear
10:35 AM 57.2 °F 19.4 °F 23% 30.17 in 10.0 mi North - - N/A   Clear
10:55 AM 59.0 °F 21.2 °F 23% 30.17 in 10.0 mi North - - N/A   Clear
11:15 AM 60.8 °F 14.0 °F 16% 30.17 in 10.0 mi North - - N/A   Clear
11:35 AM 62.6 °F 6.8 °F 11% 30.18 in 10.0 mi North - - N/A   Clear
11:55 AM 62.6 °F 19.4 °F 19% 30.18 in 10.0 mi North - - N/A   Clear
12:15 PM 62.6 °F 17.6 °F 18% 30.18 in 10.0 mi North - - N/A   Clear
12:35 PM 64.4 °F 12.2 °F 13% 30.17 in 10.0 mi North - - N/A   Clear
12:55 PM 66.2 °F 8.6 °F 11% 30.17 in 10.0 mi North - - N/A   Clear
1:15 PM 66.2 °F 12.2 °F 12% 30.17 in 10.0 mi North - - N/A   Clear
1:35 PM 66.2 °F 10.4 °F 11% 30.17 in 10.0 mi North - - N/A   Clear
1:55 PM 68.0 °F 10.4 °F 11% 30.16 in 10.0 mi North - - N/A   Clear
2:15 PM 68.0 °F 10.4 °F 11% 30.16 in 10.0 mi North - - N/A   Clear
2:35 PM 68.0 °F 8.6 °F 10% 30.15 in 10.0 mi North - - N/A   Clear
2:55 PM 68.0 °F 10.4 °F 11% 30.15 in 10.0 mi North - - N/A   Clear
3:15 PM 68.0 °F 12.2 °F 12% 30.15 in 10.0 mi North - - N/A   Clear
3:35 PM 68.0 °F 15.8 °F 13% 30.15 in 10.0 mi North - - N/A   Clear
3:55 PM 68.0 °F 15.8 °F 13% 30.16 in 10.0 mi North - - N/A   Clear
4:15 PM 68.0 °F 15.8 °F 13% 30.16 in 10.0 mi North - - N/A   Clear
4:35 PM 68.0 °F 19.4 °F 16% 30.16 in 10.0 mi North - - N/A   Clear
5:15 PM 68.0 °F 17.6 °F 15% 30.16 in 10.0 mi North - - N/A   Clear
5:35 PM 66.2 °F 23.0 °F 19% 30.16 in 10.0 mi North - - N/A   Clear
5:55 PM 62.6 °F 24.8 °F 24% 30.17 in 10.0 mi North - - N/A   Clear
6:15 PM 60.8 °F 30.2 °F 31% 30.17 in 10.0 mi North - - N/A   Clear
6:35 PM 59.0 °F 24.8 °F 27% 30.17 in 10.0 mi North - - N/A   Clear
6:55 PM 57.2 °F 30.2 °F 36% 30.18 in 10.0 mi North - - N/A   Clear
7:35 PM 55.4 °F 30.2 °F 38% 30.19 in 10.0 mi North - - N/A   Clear
7:55 PM 55.4 °F 30.2 °F 38% 30.19 in 10.0 mi North - - N/A   Clear
8:15 PM 51.8 °F 32.0 °F 47% 30.19 in 10.0 mi North - - N/A   Clear
8:35 PM 51.8 °F 32.0 °F 47% 30.20 in 10.0 mi North - - N/A   Clear
8:55 PM 50.0 °F 33.8 °F 54% 30.20 in 10.0 mi North - - N/A   Clear
9:15 PM 50.0 °F 32.0 °F 50% 30.20 in 10.0 mi North - - N/A   Clear
9:35 PM 50.0 °F 33.8 °F 54% 30.21 in 10.0 mi North - - N/A   Clear
9:55 PM 48.2 °F 32.0 °F 54% 30.22 in 10.0 mi North - - N/A   Clear
10:15 PM 48.2 °F 32.0 °F 54% 30.22 in 10.0 mi North - - N/A   Clear
10:35 PM 48.2 °F 32.0 °F 54% 30.22 in 10.0 mi North - - N/A   Clear
10:55 PM 48.2 °F 30.2 °F 50% 30.23 in 10.0 mi North - - N/A   Clear
11:15 PM 46.4 °F 32.0 °F 57% 30.23 in 10.0 mi North - - N/A   Clear
11:35 PM 46.4 °F 32.0 °F 57% 30.23 in 10.0 mi North - - N/A   Clear
11:55 PM 44.6 °F 32.0 °F 61% 30.23 in 10.0 mi North - - N/A   Clear